Вернуться в каталог

SL-12 DEB

LostHEO
NORAD 41676·DEBRIS·🇷🇺 Russia

Запущен Oct 26, 2007 с Baikonur Cosmodrome

Loading…

Ближайшие Пролёты (ближайшие 24 часа)

TLE

УстаревшееSource: Space-Track

Эпоха: Jul 9, 2023, 20:26 UTC

1 41676U 07052H   23190.85206208  .00005840  00000-0  12462+0 0  9995
2 41676  66.4302  10.7256 5489644  79.9470  10.3327  4.26281953136730

Отслеживайте SL-12 DEB в реальном времени с AllMySat

Download on the App Store